Regional Weather Roundup
Issued by NWS

Home | Current Version | Previous Version | Graphics & Text | Print | Product List | Glossary On
Versions: 1 2 3 4 5 6 7 8 9 10 11 12 13 14 15 16 17 18 19 20 21 22 23 24 25 26 27 28 29 30 31 32 33 34 35 36 37 38 39 40 41 42 43 44 45 46 47 48 49 50
000
ASUS45 KBOU 140607
RWRCO

WEATHER ROUNDUP FOR COLORADO
NATIONAL WEATHER SERVICE DENVER/BOULDER CO
1100 PM MST SAT FEB 13 2016

NOTE: "FAIR" INDICATES FEW OR NO CLOUDS BELOW 12000 FEET WITH NO
SIGNIFICANT WEATHER AND/OR OBSTRUCTIONS TO VISIBILITY.

COZ001>005-013-030-031-140700-
...NORTHWEST COLORADO...

CITY           SKY/WX    TMP DP  RH WIND       PRES   REMARKS
CRAIG          FAIR      14  10  84 E3        30.25S
HAYDEN         FAIR      23  14  68 CALM      30.24S
MEEKER         FAIR      17  12  80 VRB3      30.22F
MOUNT WERNER   NOT AVBL
STEAMBOAT SPGS FAIR      27  17  67 E6        30.24S WCI  20
WALDEN         FAIR      30  12  47 CALM      30.18S
$$

COZ006>008-011-140700-
...WEST CENTRAL VALLEYS...

CITY           SKY/WX    TMP DP  RH WIND       PRES   REMARKS
GRAND JUNCTION FAIR      29  27  92 NE9       30.22S WCI  20
MONTROSE       FAIR      30  26  85 SE7       30.25F WCI  23
EAGLE          CLEAR     28  23  80 E7        30.24R WCI  21
RIFLE          FAIR      27  20  75 CALM      30.23S
DELTA          FAIR      33  30  87 CALM      30.24F
NUCLA          NOT AVBL
$$

COZ017>023-064>068-140700-
...SOUTHWEST COLORADO...

CITY           SKY/WX    TMP DP  RH WIND       PRES   REMARKS
DURANGO        FAIR      32  20  61 CALM      30.16F
CORTEZ         FAIR      31  25  78 E10       30.19F WCI  22
PAGOSA SPRINGS FAIR      29  18  64 CALM      30.20S
TELLURIDE      NOT AVBL
WOLF CREEK PAS FAIR      28  -8  20 N6G17     30.34S WCI  22
$$

COZ009-010-012-014-032>034-037-058>063-140700-
...CENTRAL COLORADO...

CITY           SKY/WX    TMP DP  RH WIND       PRES   REMARKS
ASPEN          FAIR      25  14  63 S8        30.22F WCI  16
BUENA VISTA    FAIR      39   8  27 W16G23    30.16F
COPPER MTN     FAIR      25   3  39 W15G23    30.25F WCI  12
BERTHOUD PASS  FAIR      18   7  62 W20G35    30.23F WCI   1
COTTONWOOD PAS FAIR      36   1  23 SW31G44   30.19R
GUNNISON       FAIR       7   7 100 CALM      30.29F
KREMMLING      FAIR      28  16  59 SE6       30.22R WCI  22
LEADVILLE      FAIR      27   5  39 E7        30.23F WCI  19
MONARCH PASS   FAIR      23   5  46 MISG      30.36S
SALIDA         NOT AVBL
SUNLIGHT       FAIR      27  16  63 CALM        N/A
WILKERSON PASS FAIR      27   3  36 W22G35    30.15F WCI  12
$$

COZ069>075-140700-
...SAN LUIS VALLEY/SANGRE DE CRISTO MOUNTAINS...

CITY           SKY/WX    TMP DP  RH WIND       PRES   REMARKS
ALAMOSA        FAIR      32  21  64 NW6       30.17F WCI  26
LA VETA PASS   FAIR      32   9  37 MISG      30.17F
SAGUACHE       FAIR      34  16  47 N8        30.20S WCI  27
$$

COZ035-036-038>040-140700-
...NORTHERN COLORADO FRONT RANGE...

CITY           SKY/WX    TMP DP  RH WIND       PRES   REMARKS
DENVER INTL AP FAIR      37  22  54 NE22      30.03R
DMNS CITY PARK   N/A     43  15  32 E16G23    30.01R
AURORA         PTCLDY    37  21  52 NE18G24   30.04R
FRONT RANGE AP   N/A     32  27  80 NE13      30.06R WCI  22
ERIE MUNI ARPT FAIR      47  13  25 NE12G26   30.00R
BOULDER MUN AP FAIR      52  10  19 E7        29.96R
CENTENNIAL     FAIR      44  17  33 E10       30.04R
BROOMFIELD     FAIR      50  12  22 N15G22    30.01R
FORT COLLINS   FAIR      43  19  39 N20G26    30.02F
LONGMONT       FAIR      49  15  25 NE9G41    30.01R
$$

COZ041-046-047-076>085-087-088-140700-
...PIKES PEAK/PALMER DIVIDE AND SOUTHERN FOOTHILLS...

CITY           SKY/WX    TMP DP  RH WIND       PRES   REMARKS
COLO. SPRINGS  FAIR      48   7  18 N13       30.03R
A. F. ACADEMY  FAIR      46   8  21 NE14      30.02R
SCHRIEVER AFB  FAIR      45   8  22 N13G22    30.04R
ELLICOTT       FAIR     N/A N/A N/A NE9       30.04R
FALCON         FAIR      38   8  28 NW3       30.07R
FORT CARSON    FAIR      44  17  35 S5        30.00R
LIMON          FAIR      31  28  89 N20       30.05R WCI  19
MONUMENT HILL  FAIR      37  14  38 N9        30.08R
TRINIDAD       FAIR      39  11  31 SW10      30.00R
$$

COZ042>045-048>051-090-091-140700-
...NORTHEAST COLORADO...

CITY           SKY/WX    TMP DP  RH WIND       PRES   REMARKS
GREELEY ARPT   FAIR      36  28  75 N21       30.04R
AKRON          FAIR      32  28  85 N24       30.05R WCI  19
BURLINGTON     FAIR      35  29  78 N14       30.07R WCI  26
WRAY           FAIR      37  31  79 NW16G22   30.04S
STERLING       FAIR      36  30  80 N16       30.06R
HOLYOKE        FAIR      37  32  81 NW16G22   30.03F
FORT MORGAN    FAIR      34  27  76 N17       30.07R WCI  23
$$

COZ086-089-092>099-140700-
...SOUTHEAST COLORADO...

CITY           SKY/WX    TMP DP  RH WIND       PRES   REMARKS
PUEBLO         FAIR      39  29  67 E6        30.00R
LA JUNTA       FAIR      34  29  82 NW8       29.99F WCI  27
LAMAR          FAIR      27  24  89 W3        29.98R
SPRINGFIELD      N/A     29  27  92 NW8       29.94R WCI  21
$$



USA.gov is the U.S. government's official web portal to all federal, state and local government web resources and services.